Total_Precipitation_Accumulation
1.51 1.71 1.68 1.60 1.62 1.67 1.80 1.97 2.09 1.89 1.70 1.58 1.42 1.31 1.38 1.51 1.55 1.36 1.29 1.41 1.28 1.08 1.00 0.97 0.97 1.00 1.06 1.10 1.17 1.28 1.38 1.48 1.59 1.78 2.10 2.50 2.85 3.21
1.72 1.84 1.82 1.78 1.78 1.71 1.77 1.90 2.07 2.10 1.83 1.51 1.46 1.36 1.35 1.20 1.32 1.18 1.14 1.28 1.19 1.10 1.04 1.00 0.97 0.98 1.01 1.02 0.99 0.99 1.04 1.06 1.09 1.16 1.26 1.42 1.64 1.93
1.80 1.96 2.01 2.12 2.11 1.95 1.91 1.90 1.95 2.07 1.89 1.59 1.50 1.42 1.30 1.16 1.16 1.09 1.02 1.02 1.00 1.08 0.99 0.93 0.86 0.84 0.87 0.91 0.91 0.90 0.87 0.86 0.89 0.94 0.99 1.08 1.14 1.24
1.92 2.13 2.16 2.15 2.08 1.98 2.00 1.94 1.91 2.05 1.96 1.72 1.65 1.54 1.44 1.28 1.20 1.15 1.00 0.96 0.99 1.19 1.10 0.96 0.88 0.84 0.81 0.78 0.77 0.79 0.82 0.84 0.86 0.87 0.90 0.95 0.98 1.02
1.94 2.02 2.02 2.09 2.02 1.97 1.90 1.86 1.83 1.97 2.09 1.92 1.86 1.83 1.69 1.50 1.39 1.26 1.13 1.12 0.96 0.99 1.01 0.94 0.89 0.84 0.80 0.76 0.76 0.76 0.75 0.74 0.75 0.78 0.82 0.89 0.92 0.93
1.89 1.98 2.03 2.03 2.07 2.17 2.06 2.03 2.10 2.17 2.22 2.14 2.04 2.11 2.03 1.81 1.63 1.44 1.27 1.18 1.09 0.91 0.96 0.98 0.94 0.85 0.78 0.72 0.69 0.70 0.74 0.74 0.73 0.75 0.75 0.78 0.87 0.95
1.85 1.82 1.90 2.09 2.17 2.20 2.04 2.07 2.19 2.17 2.12 2.13 2.08 2.17 2.16 2.02 1.73 1.47 1.37 1.33 1.24 1.07 1.00 0.89 0.89 0.87 0.86 0.85 0.83 0.81 0.76 0.77 0.78 0.77 0.78 0.82 0.88 1.00
1.80 1.73 1.66 1.69 1.77 1.89 1.89 1.83 1.86 1.91 1.97 1.99 2.01 2.07 2.10 2.00 1.82 1.63 1.51 1.40 1.34 1.30 1.32 1.26 1.13 1.13 1.02 0.90 0.93 0.89 0.84 0.81 0.81 0.81 0.82 0.83 0.87 0.99
1.49 1.47 1.28 1.20 1.43 1.52 1.66 1.65 1.54 1.51 1.54 1.69 1.81 1.84 1.98 2.02 1.97 1.77 1.71 1.61 1.45 1.41 1.45 1.46 1.36 1.24 1.06 1.01 1.09 0.94 0.89 0.88 0.88 0.88 0.87 0.83 0.79 0.81
1.25 1.22 1.22 1.20 1.26 1.37 1.43 1.43 1.39 1.35 1.34 1.36 1.46 1.65 1.82 1.98 1.99 1.91 1.86 1.73 1.55 1.44 1.44 1.46 1.35 1.26 1.11 1.05 1.10 0.99 0.92 0.88 0.87 0.93 1.02 1.01 0.86 0.80
1.29 1.34 1.36 1.25 1.30 1.27 1.26 1.27 1.27 1.33 1.34 1.32 1.33 1.49 1.67 1.79 1.94 1.92 1.85 1.74 1.58 1.46 1.41 1.37 1.30 1.31 1.24 1.10 0.99 0.94 0.79 0.73 0.70 0.72 0.86 1.11 1.19 1.02
1.49 1.43 1.36 1.21 1.16 1.11 1.10 1.18 1.15 1.16 1.25 1.27 1.27 1.36 1.48 1.61 1.77 1.74 1.67 1.68 1.54 1.41 1.27 1.26 1.24 1.26 1.28 1.11 0.93 0.81 0.73 0.71 0.67 0.69 0.84 1.16 1.31 1.16
1.53 1.46 1.40 1.28 1.10 1.03 0.97 0.98 1.01 1.05 1.13 1.19 1.29 1.38 1.50 1.62 1.64 1.63 1.63 1.55 1.49 1.29 1.08 1.15 1.16 1.10 1.06 0.98 0.87 0.79 0.71 0.66 0.63 0.66 0.75 1.00 1.26 1.21
1.67 1.61 1.54 1.40 1.14 1.03 0.91 0.90 0.91 0.89 1.01 1.12 1.19 1.29 1.40 1.54 1.64 1.70 1.71 1.59 1.42 1.29 1.19 1.19 1.15 1.10 1.01 0.92 0.84 0.77 0.76 0.71 0.67 0.66 0.67 0.82 0.94 1.20
1.68 1.75 1.59 1.42 1.23 1.09 1.05 1.00 0.91 0.85 0.99 1.11 1.10 1.14 1.23 1.38 1.64 1.84 1.93 1.86 1.59 1.31 1.19 1.12 1.05 1.03 1.02 0.89 0.75 0.69 0.71 0.75 0.70 0.69 0.70 0.74 0.85 1.05
1.65 1.68 1.53 1.40 1.23 1.10 1.09 1.00 0.88 0.85 0.92 1.03 1.10 1.16 1.27 1.38 1.54 1.71 1.90 1.92 1.73 1.34 1.16 1.10 1.05 1.06 1.02 0.90 0.79 0.69 0.64 0.70 0.72 0.74 0.81 0.85 0.96 1.07
1.67 1.73 1.66 1.54 1.43 1.29 1.20 1.16 1.13 1.08 1.01 1.02 1.15 1.21 1.25 1.25 1.33 1.48 1.69 1.79 1.63 1.28 1.09 1.08 1.13 1.15 1.13 1.11 0.99 0.80 0.73 0.68 0.70 0.82 0.94 0.95 0.96 0.98
1.45 1.62 1.63 1.53 1.44 1.40 1.35 1.29 1.24 1.17 1.12 1.10 1.12 1.17 1.18 1.20 1.26 1.35 1.46 1.55 1.50 1.32 1.17 1.06 1.14 1.23 1.20 1.12 0.96 0.83 0.77 0.76 0.75 0.87 0.92 0.91 0.86 0.86
1.14 1.34 1.35 1.33 1.31 1.33 1.30 1.20 1.12 1.13 1.17 1.13 1.08 1.13 1.18 1.21 1.24 1.32 1.37 1.46 1.49 1.45 1.32 1.18 1.15 1.16 1.06 0.88 0.77 0.74 0.76 0.79 0.84 0.87 0.88 0.86 0.80 0.77
0.97 1.11 1.16 1.17 1.20 1.25 1.25 1.24 1.19 1.20 1.22 1.19 1.18 1.21 1.29 1.31 1.30 1.33 1.40 1.42 1.47 1.49 1.45 1.29 1.14 1.06 0.97 0.86 0.78 0.69 0.65 0.72 0.81 0.82 0.81 0.84 0.82 0.82
0.99 1.06 1.11 1.12 1.15 1.23 1.25 1.25 1.25 1.27 1.26 1.27 1.28 1.31 1.40 1.46 1.36 1.30 1.35 1.42 1.39 1.42 1.38 1.24 1.13 1.17 1.20 1.21 1.01 0.75 0.68 0.67 0.71 0.77 0.84 0.91 0.90 0.91
1.06 1.06 1.12 1.15 1.16 1.17 1.20 1.20 1.22 1.26 1.27 1.27 1.33 1.37 1.39 1.40 1.32 1.29 1.29 1.35 1.31 1.26 1.28 1.34 1.45 1.48 1.37 1.26 1.03 0.87 0.83 0.80 0.80 0.78 0.76 0.78 0.78 0.77
1.09 1.09 1.10 1.08 1.08 1.11 1.14 1.15 1.23 1.26 1.25 1.25 1.30 1.36 1.37 1.35 1.30 1.29 1.28 1.28 1.32 1.34 1.41 1.50 1.59 1.54 1.34 1.21 1.09 1.01 0.98 0.96 0.92 0.88 0.82 0.73 0.63 0.57